weather.gov     
National Weather Service

Regional Weather Roundup
NWS Homepage
This page is being discontinued on March 12, 2014.
The same data is available at this site. Please update your bookmarks.
Thank you, and we apologize for the inconvenience.
Please send an email to SR-SRH.Webmaster@noaa.gov with any concerns.


Current Version
Previous Version:    01  02  03  04  05  06  07  08  09  10  11  12  13  14  15  16  17  18  19  20  21  22  23  24  25  26  27  28  29  30  
   31  32  33  34  35  36  37  38  39  40  41  42  43  44  45  46  47  48  49  50  51  52  53  
[Printable]
841
ASUS43 KGLD 211808
RWRGLD

GOODLAND FORECAST AREA HOURLY WEATHER ROUNDUP
NATIONAL WEATHER SERVICE GOODLAND KS
1200 PM MDT TUE OCT 21 2014

...OFFICIAL OBSERVATIONS...

CITY           SKY/WX    TMP DP  RH WIND       PRES   REMARKS
GOODLAND KS    SUNNY     66  55  67 S14       30.03F
HILL CITY KS     N/A     75  59  57 SE14      30.05F
IMPERIAL NEB   SUNNY     71  55  56 S20G28    29.99F
MCCOOK NEB     SUNNY     75  56  51 S16G28    30.02F
AKRON CO       SUNNY     75  43  31 SW9       29.99F
BURLINGTON CO  SUNNY     74  46  36 S15       30.03F
LIMON CO       SUNNY     70  40  33 S13       30.05F
$$

...UNOFFICIAL OBSERVATIONS...

CITY           SKY/WX    TMP DP  RH WIND       PRES   REMARKS
COLBY KS       SUNNY     73  59  60 SE18      30.04F
GOVE KS          N/A     73  32  22 MISG        N/A
NORTON KS      SUNNY     73  54  49 S16G22    30.03F
SHARON SPRINGS   N/A     72  57  59 S14         N/A
TRENTON NEB      N/A     75  32  20 SW18        N/A
KIT CARSON CO    N/A     72  49  44 N14         N/A
YUMA CO          N/A     73  44  35 S20G26      N/A
$$




U.S. Dept. of Commerce
NOAA National Weather Service
1325 East West Highway
Silver Spring, MD 20910
E-mail: w-nws.webmaster@noaa.gov
Page last modified: May 16, 2007
NATIONAL WEATHER SERVICE: for Safety, for Work, for Fun - FOR LIFE